Regional Weather Roundup
Issued by NWS Wakefield, VA

Home | Current Version | Previous Version | Graphics & Text | Print | Product List | Glossary On
Versions: 1 2 3 4 5 6 7 8 9 10 11 12 13 14 15 16 17 18 19 20 21 22 23 24 25 26 27 28 29 30 31 32 33 34 35 36 37 38 39 40 41 42 43 44 45 46 47 48 49 50
506
ASUS41 KAKQ 271214
RWRAKQ

REGIONAL WEATHER ROUNDUP
NATIONAL WEATHER SERVICE WAKEFIELD VA
800 AM EDT SUN MAY 27 2018

Note: "fair" indicates few or no clouds below 12,000 feet with no
significant weather and/or obstructions to visibility. * = Denotes
station may not report precipitation (e.g., rain,snow,etc.),
thunder or fog.

VAZ042-051-052>054-056-271300-
NORTHERN VIRGINIA

CITY           SKY/WX    TMP DP  RH WIND       PRES   REMARKS
WASH NATIONAL  PTSUNNY   77  71  82 SW5       29.92R
DULLES         PTSUNNY   75  71  87 W6        29.92R
FORT BELVOIR   FAIR      75  71  87 CALM      29.91S
QUANTICO       CLOUDY    74  73  97 S5        29.92S
FREDERICKSBRG* CLOUDY    74  74 100 SW5       29.92R
STAFFORD*      CLOUDY    74  74 100 CALM      29.97R
WARRENTON      PTSUNNY   75  69  83 CALM      29.92S
CULPEPER*      CLOUDY    74  70  89 CALM      29.94R
MANASSAS*      FAIR      74  72  93 SW3       29.92S
LEESBURG*      FAIR      72  70  94 CALM      29.93S
WINCHESTER     FAIR      70  68  94 SW3       29.95S
FRONT ROYAL*   PTSUNNY  N/A N/A N/A CALM      29.93S
LURAY*         FAIR      70  68  94 CALM      29.95S
$$

VAZ048-049-060>072-079>083-271300-
CENTRAL AND SOUTH CENTRAL VIRGINIA

CITY           SKY/WX    TMP DP  RH WIND       PRES   REMARKS
RICHMOND       CLOUDY    74  71  91 SW9       29.95R
CHESTERFIELD*  CLOUDY    73  71  93 SW6       29.96R
PETERSBURG*    LGT RAIN  73  70  92 SW5       29.96S
HANOVER        CLOUDY    74  70  87 SW10      29.95R
TAPPAHANNOCK*  CLOUDY    76  72  88 SW8       29.94R
QUINTON*       CLOUDY    73  73 100 SW6       29.94S
CHARLOTTSVILLE FAIR      73  71  93 SW3       29.94R
GORDONSVILLE*  CLOUDY    72  72 100 SW5       29.93S
ORANGE*        CLOUDY    72  70  94 SW6       29.93S
LOUISA*        CLOUDY    71  69  93 SW6       29.98S
BUMPASS*       CLOUDY    72  71  95 SW9       29.94S
FARMVILLE*     CLOUDY   N/A N/A N/A S7        29.95S
CREWE*         CLOUDY    73  73 100 SW5       29.96S
FORT PICKETT*  CLOUDY    73  73 100 SW9       29.97S
CHASE CITY*    CLOUDY    72  72 100 S3        29.99R
CLARKSVILLE*   CLOUDY    72  72 100 S6        29.98R
SOUTH HILL*    CLOUDY    71  71 100 S9        30.04R
LAWRENCEVILLE* CLOUDY    72  71  97 SW7       29.98S
EMPORIA*       CLOUDY    72  70  94 S7        30.00R
$$

VAZ088>098-271300-
SOUTHEAST VIRGINIA

CITY           SKY/WX    TMP DP  RH WIND       PRES   REMARKS
NORFOLK        FAIR      77  71  82 SW15      29.97R
VIRGINIA BEACH PTSUNNY   75  70  84 SW14      29.97R
NORFOLK NAVAL  PTSUNNY   75  69  81 SW10      29.98R
WEST POINT*    CLOUDY    74  71  91 SW7       29.96R
SALUDA*        CLOUDY    73  73 100 SW7       29.94S
NEWPORT NEWS   PTSUNNY   74  70  87 SW14      29.96R
LANGLEY AFB    FAIR      74  72  93 SW12      29.97R
FORT EUSTIS    PTSUNNY   74  71  92 SW9       29.94S
WILLIAMSBURG*  FAIR      75  72  88 W8        29.97R
HR EXEC AP*    FAIR      75  70  84 SW9       29.99R
FRANKLIN*      FAIR      74  70  88 SW8       29.99R
US460-WAKEFLD  CLOUDY    73  70  90 SW8       29.97R FOG
$$

VAZ020-022-025-037-045-271300-
WEST CENTRAL AND SOUTHWEST VIRGINIA

CITY           SKY/WX    TMP DP  RH WIND       PRES   REMARKS
STAUNTON*      FAIR      69  67  93 CALM      29.99R
WAYNESBORO*    PTSUNNY   70  69  96 CALM      29.98S
HOT SPRINGS VA FOG       50  50 100 W9        30.09S VSB 1/4
LYNCHBURG      CLOUDY    70  68  93 S8        29.98R
DANVILLE       CLOUDY    71  71 100 SW6       29.99R
SOUTH BOSTON*  CLOUDY    73  71  95 SW6       29.99R
MARTINSVILLE   CLOUDY    70  68  96 CALM      30.02S
ROANOKE        PTSUNNY   71  66  84 W6        30.00S
BLACKSBURG     PTSUNNY   65  65 100 CALM      30.07R
DUBLIN*        FAIR      67  67 100 CALM      30.05R
MARION*        CLOUDY    68  68  99 CALM      30.09R FOG
HILLSVILLE*    FAIR      67  65  93 CALM      30.06R
RICHLANDS*     CLOUDY    66  51  58 SW3       30.08R
WISE*          PTSUNNY   64  64 100 SW7       30.07S
ABINGDON*      CLOUDY    69  69 100 W5        30.06R FOG
$$

MDZ021>025-VAZ099-100-271300-
SOUTHERN MARYLAND AND THE DELMARVA PENINSULA

CITY           SKY/WX    TMP DP  RH WIND       PRES   REMARKS
PATUXENT RIVER PTSUNNY   78  71  79 SW8       29.92R
BAY BRIDGE APT CLOUDY    75  72  88 SW5       29.91R FOG
LEONARDTOWN    CLOUDY    73  70  88 SW9       29.94R
DOVER          PTSUNNY   77  73  88 S13       29.90R
GEORGETOWN     PTSUNNY   73  72  96 SW7       29.92S
EASTON         PTSUNNY   75  72  88 SW9       29.95R
CAMBRIDGE      PTSUNNY   75  72  88 S6G12     29.92R
SALISBURY      CLOUDY    74  72  93 S6        29.93R
TANGIER        CLOUDY    75  73  94 SW18G25   29.94R
OCEAN CITY     LGT RAIN  73  72  96 SW7       29.94R
WALLOPS ISLAND FAIR      75  73  93 SW9       29.95R
ACCOMACK*      PTSUNNY   74  72  93 SW10      29.95R
$$

NCZ012>017-030>032-271300-
NORTH CENTRAL AND EASTERN NORTH CAROLINA

CITY           SKY/WX    TMP DP  RH WIND       PRES   REMARKS
ROANOKE RAPIDS FAIR      72  72 100 SW10      30.00S
RALEIGH        PTSUNNY   72  71  97 SW12      30.02R
ELIZABETH CITY FAIR      77  73  87 SW12      30.00R
AHOSKIE*       PTSUNNY   73  71  95 S5        30.00S
EDENTON*       FAIR      76  72  86 SW8       30.02R
CURRITUCK*     NOT AVBL
KILL DEVIL HLS   N/A     75  71  88 SW7       30.01R
MANTEO         FAIR      76  71  85 SW14      30.03R
CAPE HATTERAS  FAIR      77  73  87 SW6       30.05R
TARBORO*       NOT AVBL
GOLDSBORO      FAIR      74  71  91 S6        30.01R
WASHINGTON     FAIR      74  71  88 SW5       30.03R
GREENVILLE     FAIR      73  72  94 SW8       30.04R
NEW BERN       FAIR      74  73  97 S6        30.04R
WILMINGTON     FAIR      76  72  87 S6        30.03R
$$

VAZ048-271300-
ELSEWHERE

CITY           SKY/WX    TMP DP  RH WIND       PRES   REMARKS
HARRISBURG PA  PTSUNNY   73  67  81 NW6       29.90R
BALTIMORE      CLOUDY    74  72  93 W6        29.90R
ANNAPOLIS      CLOUDY    77  30  17 SW5       29.90R
ANDREWS AFB    PTSUNNY   74  70  89 SW8       29.91R
PHILADELPHIA   PTSUNNY   74  71  91 SW5       29.91S
HENDERSON NC   CLOUDY    69  67  93 SW7       30.00R
GREENSBORO     PTSUNNY   72  71  97 SW10      30.00R
ROCKY MOUNT    PTSUNNY   74  71  91 S7        30.02R
$$

VAZ100-271300-
MARINE

STATION/POSITION TIME  TEMP    WIND        PRES    WAVE   SWELL
                       AIR SEA DIR/SP/G            HT/PER HT/PER
                 (UTC) (F)     (DEG/KT/KT) (MB)    (FT/S) (FT/S)
BRANDYWINE LGT   1148   72     220/ 13/ 14 1013.3R
CAPE MAY NJ      1148   71 68  200/  8/ 11 1012.5F
LEWES DE         1148   72 67  220/  3/  5 1012.9F
15NM E FENWICK I 1150   66 65  190/ 10/ 12 1014.0R   3/ 5   2/ 8
OCEAN-CITY-INLET 1148   65 60  200/  7/  9 1014.2R
WACHAPREAGUE VA  1148   74 77  230/  7/ 13 1014.3R
THOMAS POINT MD  1200   73 71  210/  6/  7 1013.7R
GOOSES REEF MD   1200   74     220/  6/  8 1013.6    1
COVE POINT MD    1148   73     240/ 10/ 13 1013.6R
SOLOMONS ISLAND  1148   74 72  240/  9/ 11 1013.1R
BISHOPS HEAD MD  1148   75 78  220/ 15/ 18 1013.7R
PINEY POINT MD   1142          260/  5/  6   N/A
POTOMAC MD       1200   75 75  230/ 14/ 17 1012.9    2/ 2
CAMBRIDGE MD     1148   77 76              1014.1R
LEWISETTA VA     1148   75 75  250/ 10/ 13 1013.5R
RAPPAHANNOCK LGT 1142          210/ 17/ 19 1014.8R
STINGRAY PT      1200   74 75  250/ 16/ 17 1016.8    1/ 2
YORK RVR RNG VA  1148   74     240/ 15/ 18 1014.8R
YORKTOWN VA      1148   73 74  220/ 11/ 19 1013.8R
DOMINION TERM VA 1148   74     230/ 13/ 16 1015.0R
KIPTOPEKE VA     1142      74  220/ 13/ 16   N/A
CAPE HENRY VA    1148   75     220/  9/ 14 1013.3R
WILLOUBY STN VA  1148   74     220/ 15/ 18 1013.9R
S CRANEY ISL VA  1148   75     210/ 11/ 17 1014.7R
CAPE HENRY BUOY  1200      71                N/A     2/ 4
1ST LANDING BUOY 1200   74 74  230/ 16/ 17 1014.5    2/ 3
64NM E OF VA BCH 1150   73 72  220/ 14/ 16 1016.1R   3/ 5   2/ 9
DUCK PIER NC     1148   76 53  230/ 14/ 19 1015.9R
44100 DUCK FRF   1145      69                N/A     2/ 9
44056 DUCK FRF   1200      57                N/A     1/ 9
OREGON INLET NC  1142   76 79  220/ 16/ 18 1016.6R
HATTERAS NC      1148   77 77  210/  6/  9 1017.1R
DIAMOND SHLS NC  1150   75 78  190/ 12/ 16 1017.8R   3/ 5   2/ 8
CAPE LOOKOUT NC  1100          210/  5/  7 1017.3R
$$




USA.gov is the U.S. government's official web portal to all federal, state and local government web resources and services.